Location: Austin
(30.3000°N, 97.7500°W)
Time: 23:05:56
(UTC-06:00)

USA 267 - Pass Details

Date: 03 December 2025
Orbit: 1100 x 1108 km, 123.0° (Epoch: 21 November)

Event Time Altitude Azimuth Distance (km) Brightness Sun altitude
Rises 05:28:17 0° 49° (NE) 3,916 6.7 -21.9°
Reaches altitude 10° 05:30:55 10° 56° (NE) 2,955 6.1 -21.3°
Maximum altitude 05:37:04 43° 126° (SE) 1,491 4.4 -20.0°
Drops below altitude 10° 05:43:10 10° 197° (SSW) 2,943 5.5 -18.7°
Sets 05:45:47 0° 203° (SSW) 3,898 6.1 -18.2°
